Location: Unspecified
(42.1610°N, 0.0000°E)
Time: 00:23:41
(UTC+00:00)

CZ-6A DEB - Visible Passes

Search period start: 04 April 2026 00:00
Search period end: 14 April 2026 00:00
Orbit: 793 x 881 km, 89.1° (Epoch: 29 March)

Date Brightness Start Highest point End Pass type
(mag) Time Alt. Az. Time Alt. Az. Time Alt. Az.
4 Apr ? 19:20:01 10° NNW 19:24:27 27° WNW 19:28:54 10° SW visible
5 Apr ? 05:05:40 10° ESE 05:08:55 17° ENE 05:12:10 10° NE visible
5 Apr ? 19:03:48 10° NNW 19:08:34 34° W 19:13:24 10° SW visible
6 Apr ? 04:50:49 10° E 04:53:07 13° ENE 04:55:25 10° NE visible
6 Apr ? 18:47:38 10° NNW 18:52:41 44° W 18:57:47 10° SSW visible
9 Apr ? 19:44:11 10° NW 19:45:41 11° WNW 19:47:11 10° W visible
10 Apr ? 19:27:03 10° NW 19:29:54 15° WNW 19:32:45 10° WSW visible
11 Apr ? 19:10:27 10° NNW 19:14:04 19° WNW 19:17:44 10° WSW visible
12 Apr ? 04:54:18 10° SE 04:58:31 25° ENE 05:02:43 10° NNE visible
13 Apr ? 04:38:59 10° ESE 04:42:40 20° ENE 04:46:21 10° NNE visible
